| time (UTC) | temp F | wind direction | speed MPH | gust MPH | rain 1hr in | rain 24hr in | rain mn in | humidity % | barometer mb |
| 20260502210041 | 38 | 101 | 2.0 | 9.0 | 0.00 | 0.00 | 0.00 | 97 | 1014.3 |
| 20260502205541 | 38 | 172 | 1.0 | 6.0 | 0.00 | 0.00 | 0.00 | 98 | 1014.3 |
| 20260502205043 | 38 | 100 | 3.0 | 6.0 | 0.00 | 0.00 | 0.00 | 98 | 1014.2 |
| 20260502204541 | 38 | 71 | 3.0 | 6.0 | 0.00 | 0.00 | 0.00 | 98 | 1014.3 |
| 20260502204041 | 39 | 95 | 1.0 | 7.0 | 0.00 | 0.00 | 0.00 | 97 | 1014.3 |
| 20260502203543 | 39 | 97 | 2.0 | 7.0 | 0.00 | 0.00 | 0.00 | 97 | 1014.3 |
| 20260502203042 | 39 | 78 | 1.0 | 4.0 | 0.00 | 0.00 | 0.00 | 98 | 1014.2 |
| 20260502202544 | 39 | 45 | 0.0 | 5.0 | 0.00 | 0.00 | 0.00 | 98 | 1014.3 |
| 20260502201546 | 39 | 62 | 3.0 | 8.0 | 0.00 | 0.00 | 0.00 | 97 | 1014.4 |
| 20260502201040 | 40 | 74 | 0.0 | 4.0 | 0.00 | 0.00 | 0.00 | 98 | 1014.4 |
| 20260502200541 | 40 | 83 | 1.0 | 6.0 | 0.00 | 0.00 | 0.00 | 98 | 1014.4 |
| 20260502200040 | 40 | 72 | 2.0 | 6.0 | 0.00 | 0.00 | 0.00 | 98 | 1014.4 |
| 20260502195541 | 40 | 90 | 2.0 | 8.0 | 0.00 | 0.00 | 0.00 | 98 | 1014.3 |
| 20260502195039 | 40 | 72 | 2.0 | 8.0 | 0.00 | 0.00 | 0.00 | 98 | 1014.3 |
| 20260502194541 | 40 | 66 | 3.0 | 5.0 | 0.00 | 0.00 | 0.00 | 98 | 1014.3 |
| 20260502194043 | 39 | 74 | 2.0 | 5.0 | 0.00 | 0.00 | 0.00 | 98 | 1014.3 |
| 20260502193539 | 39 | 71 | 3.0 | 5.0 | 0.00 | 0.00 | 0.00 | 98 | 1014.3 |
| 20260502193039 | 39 | 115 | 1.0 | 5.0 | 0.00 | 0.00 | 0.00 | 98 | 1014.4 |
| 20260502192540 | 40 | 62 | 2.0 | 7.0 | 0.00 | 0.00 | 0.00 | 98 | 1014.4 |
| 20260502191544 | 40 | 62 | 3.0 | 7.0 | 0.00 | 0.00 | 0.00 | 98 | 1014.4 |
| 20260502191039 | 40 | 39 | 2.0 | 6.0 | 0.00 | 0.00 | 0.00 | 98 | 1014.4 |
| 20260502190539 | 40 | 51 | 3.0 | 6.0 | 0.00 | 0.00 | 0.00 | 98 | 1014.3 |
| 20260502190039 | 40 | 61 | 2.0 | 5.0 | 0.00 | 0.00 | 0.00 | 98 | 1014.3 |
| 20260502185538 | 40 | 64 | 1.0 | 7.0 | 0.00 | 0.00 | 0.00 | 98 | 1014.3 |
| 20260502185038 | 40 | 77 | 3.0 | 7.0 | 0.00 | 0.00 | 0.00 | 98 | 1014.3 |
| 20260502184551 | 39 | 54 | 2.0 | 5.0 | 0.00 | 0.00 | 0.00 | 98 | 1014.3 |
| 20260502184038 | 39 | 52 | 1.0 | 6.0 | 0.00 | 0.00 | 0.00 | 97 | 1014.3 |
| 20260502183538 | 39 | 47 | 2.0 | 7.0 | 0.00 | 0.00 | 0.00 | 97 | 1014.3 |
| 20260502183038 | 39 | 68 | 3.0 | 7.0 | 0.00 | 0.00 | 0.00 | 98 | 1014.3 |
| 20260502182538 | 40 | 39 | 1.0 | 6.0 | 0.00 | 0.00 | 0.00 | 98 | 1014.2 |
| 20260502181539 | 40 | 72 | 2.0 | 6.0 | 0.00 | 0.00 | 0.00 | 98 | 1014.4 |
| 20260502181037 | 39 | 55 | 1.0 | 5.0 | 0.00 | 0.00 | 0.00 | 98 | 1014.4 |
| 20260502180535 | 39 | 62 | 1.0 | 6.0 | 0.00 | 0.00 | 0.00 | 98 | 1014.5 |
| 20260502164030 | 39 | 67 | 2.0 | 6.0 | 0.00 | 0.00 | 0.00 | 97 | 1015.1 |
| 20260502163530 | 39 | 71 | 1.0 | 5.0 | 0.00 | 0.00 | 0.00 | 97 | 1015.2 |
| 20260502163032 | 39 | 68 | 2.0 | 5.0 | 0.00 | 0.00 | 0.00 | 97 | 1015.4 |
| 20260502162530 | 39 | 60 | 1.0 | 3.0 | 0.00 | 0.00 | 0.00 | 97 | 1015.3 |
| 20260502161530 | 38 | 71 | 1.0 | 7.0 | 0.00 | 0.00 | 0.00 | 97 | 1015.5 |
| 20260502161030 | 39 | 64 | 5.0 | 7.0 | 0.00 | 0.00 | 0.00 | 97 | 1015.4 |
| 20260502160534 | 39 | 70 | 1.0 | 6.0 | 0.00 | 0.00 | 0.00 | 97 | 1015.3 |
| 20260502151525 | 39 | 99 | 2.0 | 4.0 | 0.00 | 0.00 | 0.00 | 98 | 1016.1 |
| 20260502151024 | 39 | 56 | 0.0 | 1.0 | 0.00 | 0.00 | 0.00 | 97 | 1016.2 |
| 20260502150524 | 39 | 56 | 0.0 | 4.0 | 0.00 | 0.00 | 0.00 | 98 | 1016.2 |
| 20260502130516 | 39 | 66 | 4.0 | 7.0 | 0.00 | 0.00 | 0.00 | 98 | 1016.9 |
| 20260502123512 | 39 | 93 | 1.0 | 5.0 | 0.00 | 0.00 | 0.00 | 97 | 1017.1 |
| 20260502123012 | 39 | 66 | 2.0 | 8.0 | 0.00 | 0.00 | 0.00 | 97 | 1017.2 |
| 20260502122512 | 39 | 52 | 3.0 | 8.0 | 0.00 | 0.00 | 0.00 | 98 | 1017.2 |
| 20260502121532 | 38 | 64 | 0.0 | 4.0 | 0.00 | 0.00 | 0.00 | 97 | 1017.4 |
| 20260502121012 | 38 | 48 | 0.0 | 2.0 | 0.00 | 0.00 | 0.00 | 98 | 1017.4 |
| 20260502120512 | 37 | 62 | 0.0 | 5.0 | 0.00 | 0.00 | 0.00 | 97 | 1017.3 |
| 20260502115514 | 37 | 68 | 2.0 | 5.0 | 0.00 | 0.00 | 0.00 | 97 | 1017.4 |
| 20260502115010 | 37 | 67 | 2.0 | 6.0 | 0.00 | 0.00 | 0.00 | 97 | 1017.3 |
| 20260502114511 | 37 | 68 | 4.0 | 6.0 | 0.00 | 0.00 | 0.00 | 97 | 1017.4 |
| 20260502114010 | 37 | 64 | 2.0 | 5.0 | 0.00 | 0.00 | 0.00 | 97 | 1017.4 |
| 20260502113511 | 38 | 87 | 2.0 | 5.0 | 0.00 | 0.00 | 0.00 | 97 | 1017.4 |
| 20260502113010 | 38 | 68 | 2.0 | 5.0 | 0.00 | 0.00 | 0.00 | 97 | 1017.3 |
| 20260502112509 | 38 | 81 | 2.0 | 5.0 | 0.00 | 0.00 | 0.00 | 97 | 1017.3 |
| 20260502111510 | 39 | 70 | 3.0 | 6.0 | 0.00 | 0.00 | 0.00 | 98 | 1017.5 |
| 20260502111011 | 39 | 39 | 2.0 | 6.0 | 0.00 | 0.00 | 0.00 | 98 | 1017.4 |
| 20260502110510 | 39 | 8 | 2.0 | 5.0 | 0.00 | 0.00 | 0.00 | 98 | 1017.5 |
| 20260502110010 | 39 | 66 | 2.0 | 5.0 | 0.00 | 0.00 | 0.00 | 97 | 1017.5 |
| 20260502105510 | 39 | 70 | 2.0 | 5.0 | 0.00 | 0.00 | 0.00 | 97 | 1017.5 |
| 20260502105013 | 39 | 52 | 0.0 | 2.0 | 0.00 | 0.00 | 0.00 | 98 | 1017.4 |
| 20260502104508 | 39 | 58 | 0.0 | 4.0 | 0.00 | 0.00 | 0.00 | 97 | 1017.5 |
| 20260502104008 | 39 | 58 | 1.0 | 4.0 | 0.00 | 0.00 | 0.00 | 97 | 1017.6 |
| 20260502103507 | 38 | 52 | 1.0 | 4.0 | 0.00 | 0.00 | 0.00 | 97 | 1017.7 |
| 20260502103008 | 38 | 47 | 1.0 | 5.0 | 0.00 | 0.00 | 0.00 | 97 | 1017.6 |
| 20260502102508 | 38 | 36 | 1.0 | 5.0 | 0.00 | 0.00 | 0.00 | 97 | 1017.6 |
| 20260502101512 | 38 | 64 | 4.0 | 7.0 | 0.00 | 0.00 | 0.00 | 98 | 1017.5 |
| 20260502101007 | 38 | 66 | 3.0 | 5.0 | 0.00 | 0.00 | 0.00 | 98 | 1017.4 |
| 20260502100507 | 38 | 39 | 1.0 | 6.0 | 0.00 | 0.00 | 0.00 | 97 | 1017.4 |
| 20260502091503 | 38 | 68 | 1.0 | 5.0 | 0.00 | 0.00 | 0.00 | 97 | 1017.7 |
| 20260502091002 | 38 | 70 | 0.0 | 5.0 | 0.00 | 0.00 | 0.00 | 97 | 1017.6 |
| 20260502090502 | 38 | 63 | 1.0 | 5.0 | 0.00 | 0.00 | 0.00 | 97 | 1017.6 |
| 20260502071055 | 38 | 54 | 0.0 | 5.0 | 0.00 | 0.00 | 0.00 | 97 | 1018.0 |
| 20260502070555 | 38 | 72 | 1.0 | 5.0 | 0.00 | 0.00 | 0.00 | 97 | 1017.9 |
| 20260502070055 | 37 | 72 | 1.0 | 5.0 | 0.00 | 0.00 | 0.00 | 97 | 1018.0 |
| 20260502065555 | 38 | 64 | 1.0 | 5.0 | 0.00 | 0.00 | 0.00 | 97 | 1017.9 |
| 20260502065053 | 38 | 63 | 1.0 | 6.0 | 0.00 | 0.00 | 0.00 | 97 | 1017.9 |
| 20260502064558 | 38 | 60 | 2.0 | 5.0 | 0.00 | 0.00 | 0.00 | 97 | 1017.9 |
| 20260502064055 | 38 | 65 | 1.0 | 5.0 | 0.00 | 0.00 | 0.00 | 97 | 1017.9 |
| 20260502063553 | 38 | 44 | 1.0 | 5.0 | 0.00 | 0.00 | 0.00 | 97 | 1018.0 |
| 20260502063053 | 38 | 66 | 1.0 | 5.0 | 0.00 | 0.00 | 0.00 | 97 | 1018.0 |
| 20260502062551 | 38 | 76 | 2.0 | 5.0 | 0.00 | 0.00 | 0.00 | 97 | 1018.0 |
| 20260502062150 | 38 | 93 | 1.0 | 5.0 | 0.00 | 0.00 | 0.00 | 97 | 1018.0 |
| 20260502061554 | 38 | 70 | 1.0 | 5.0 | 0.00 | 0.00 | 0.00 | 97 | 1017.9 |
| 20260502061051 | 38 | 74 | 1.0 | 5.0 | 0.00 | 0.00 | 0.00 | 97 | 1018.0 |
| 20260502060550 | 38 | 57 | 2.0 | 5.0 | 0.00 | 0.00 | 0.00 | 97 | 1018.0 |
| 20260502060050 | 37 | 56 | 0.0 | 6.0 | 0.00 | 0.00 | 0.00 | 97 | 1018.1 |
| 20260502055551 | 37 | 65 | 1.0 | 5.0 | 0.00 | 0.00 | 0.00 | 97 | 1018.1 |
| 20260502055049 | 37 | 67 | 2.0 | 5.0 | 0.00 | 0.00 | 0.00 | 97 | 1018.2 |
| 20260502054549 | 37 | 66 | 2.0 | 6.0 | 0.00 | 0.00 | 0.00 | 97 | 1018.2 |
| 20260502054050 | 37 | 62 | 2.0 | 6.0 | 0.00 | 0.00 | 0.00 | 97 | 1018.1 |
| 20260502053547 | 37 | 70 | 1.0 | 6.0 | 0.00 | 0.00 | 0.00 | 97 | 1018.1 |
| 20260502053047 | 37 | 66 | 2.0 | 6.0 | 0.00 | 0.00 | 0.00 | 97 | 1018.2 |
| 20260502052545 | 37 | 49 | 1.0 | 4.0 | 0.00 | 0.00 | 0.00 | 97 | 1018.3 |
| 20260502052146 | 37 | 52 | 0.0 | 4.0 | 0.00 | 0.00 | 0.00 | 97 | 1018.4 |
| 20260502051545 | 37 | 51 | 0.0 | 4.0 | 0.00 | 0.00 | 0.00 | 97 | 1018.5 |
| 20260502051044 | 38 | 61 | 0.0 | 4.0 | 0.00 | 0.00 | 0.00 | 97 | 1018.5 |
| 20260502050544 | 38 | 62 | 0.0 | 3.0 | 0.00 | 0.00 | 0.00 | 97 | 1018.4 |
| 20260502050044 | 38 | 58 | 1.0 | 5.0 | 0.00 | 0.00 | 0.00 | 97 | 1018.4 |
| 20260502045643 | 37 | 58 | 1.0 | 5.0 | 0.00 | 0.00 | 0.00 | 97 | 1018.5 |
| 20260502045042 | 37 | 64 | 0.0 | 2.0 | 0.00 | 0.00 | 0.00 | 97 | 1018.5 |
| 20260502044541 | 37 | 62 | 0.0 | 4.0 | 0.00 | 0.00 | 0.00 | 97 | 1018.6 |
| 20260502044040 | 37 | 62 | 1.0 | 4.0 | 0.00 | 0.00 | 0.00 | 97 | 1018.7 |
| 20260502043540 | 37 | 62 | 1.0 | 3.0 | 0.00 | 0.00 | 0.00 | 97 | 1018.7 |
| 20260502043040 | 37 | 43 | 0.0 | 4.0 | 0.00 | 0.00 | 0.00 | 97 | 1018.8 |
| 20260502042542 | 37 | 53 | 0.0 | 3.0 | 0.00 | 0.00 | 0.00 | 97 | 1018.9 |
| 20260502042138 | 37 | 62 | 0.0 | 4.0 | 0.00 | 0.00 | 0.00 | 97 | 1019.0 |
| 20260502041539 | 37 | 62 | 0.0 | 4.0 | 0.00 | 0.00 | 0.00 | 97 | 1019.0 |
| 20260502041040 | 37 | 62 | 0.0 | 4.0 | 0.00 | 0.00 | 0.00 | 97 | 1019.2 |
| 20260502040537 | 37 | 47 | 0.0 | 5.0 | 0.00 | 0.00 | 0.00 | 97 | 1019.2 |
| 20260502040036 | 37 | 69 | 0.0 | 4.0 | 0.00 | 0.00 | 0.00 | 97 | 1019.2 |
| 20260502035537 | 37 | 68 | 0.0 | 4.0 | 0.00 | 0.00 | 0.00 | 97 | 1019.3 |
| 20260502035036 | 37 | 41 | 1.0 | 5.0 | 0.00 | 0.00 | 0.00 | 97 | 1019.3 |
| 20260502034536 | 37 | 59 | 0.0 | 2.0 | 0.00 | 0.00 | 0.00 | 97 | 1019.4 |
| 20260502034035 | 37 | 60 | 0.0 | 2.0 | 0.00 | 0.00 | 0.00 | 97 | 1019.3 |
| 20260502033535 | 37 | 60 | 0.0 | 3.0 | 0.00 | 0.00 | 0.00 | 97 | 1019.5 |
| 20260502033042 | 37 | 59 | 1.0 | 3.0 | 0.00 | 0.00 | 0.00 | 97 | 1019.5 |
| 20260502032533 | 37 | 54 | 0.0 | 2.0 | 0.00 | 0.00 | 0.00 | 97 | 1019.6 |
| 20260502032132 | 37 | 52 | 0.0 | 4.0 | 0.00 | 0.00 | 0.00 | 97 | 1019.7 |
| 20260502031532 | 37 | 51 | 1.0 | 4.0 | 0.00 | 0.00 | 0.00 | 97 | 1019.7 |
| 20260502031031 | 37 | 65 | 0.0 | 4.0 | 0.00 | 0.00 | 0.00 | 97 | 1019.8 |
| 20260502030531 | 37 | 65 | 1.0 | 3.0 | 0.00 | 0.00 | 0.00 | 97 | 1019.8 |
| 20260502030030 | 37 | 44 | 0.0 | 2.0 | 0.00 | 0.00 | 0.00 | 97 | 1019.7 |
| 20260502025530 | 37 | 43 | 0.0 | 5.0 | 0.00 | 0.00 | 0.00 | 97 | 1019.8 |
| 20260502025029 | 37 | 43 | 2.0 | 5.0 | 0.00 | 0.00 | 0.00 | 97 | 1019.8 |
| 20260502024529 | 37 | 48 | 0.0 | 2.0 | 0.00 | 0.00 | 0.00 | 97 | 1020.0 |
| 20260502024028 | 37 | 77 | 0.0 | 4.0 | 0.00 | 0.00 | 0.00 | 97 | 1019.9 |
| 20260502023527 | 37 | 65 | 1.0 | 5.0 | 0.00 | 0.00 | 0.00 | 97 | 1019.9 |
| 20260502023027 | 37 | 56 | 3.0 | 5.0 | 0.00 | 0.00 | 0.00 | 97 | 1020.0 |
| 20260502022526 | 38 | 52 | 2.0 | 5.0 | 0.00 | 0.00 | 0.00 | 97 | 1020.0 |
| 20260502022126 | 37 | 49 | 0.0 | 2.0 | 0.00 | 0.00 | 0.00 | 97 | 1020.1 |
| 20260502021526 | 37 | 49 | 0.0 | 2.0 | 0.00 | 0.00 | 0.00 | 97 | 1020.1 |
| 20260502021026 | 37 | 49 | 0.0 | 1.0 | 0.00 | 0.00 | 0.00 | 97 | 1020.2 |
| 20260502020525 | 37 | 49 | 0.0 | 2.0 | 0.00 | 0.00 | 0.00 | 97 | 1020.2 |
| 20260502020025 | 37 | 49 | 0.0 | 2.0 | 0.00 | 0.00 | 0.00 | 97 | 1020.2 |
| 20260502015528 | 37 | 49 | 0.0 | 2.0 | 0.00 | 0.00 | 0.00 | 97 | 1020.3 |
| 20260502015025 | 37 | 47 | 0.0 | 2.0 | 0.00 | 0.00 | 0.00 | 97 | 1020.3 |
| 20260502014528 | 37 | 47 | 0.0 | 2.0 | 0.00 | 0.00 | 0.00 | 97 | 1020.3 |
| 20260502014024 | 37 | 47 | 0.0 | 4.0 | 0.00 | 0.00 | 0.00 | 97 | 1020.3 |
| 20260502013524 | 37 | 60 | 0.0 | 3.0 | 0.00 | 0.00 | 0.00 | 97 | 1020.3 |
| 20260502013024 | 37 | 47 | 0.0 | 2.0 | 0.00 | 0.00 | 0.00 | 97 | 1020.3 |
| 20260502012524 | 37 | 47 | 0.0 | 2.0 | 0.00 | 0.00 | 0.00 | 97 | 1020.3 |
| 20260502012125 | 37 | 47 | 0.0 | 4.0 | 0.00 | 0.00 | 0.00 | 97 | 1020.3 |
| 20260502011524 | 37 | 47 | 0.0 | 4.0 | 0.00 | 0.00 | 0.00 | 97 | 1020.4 |
| 20260502011024 | 37 | 57 | 0.0 | 4.0 | 0.00 | 0.00 | 0.00 | 97 | 1020.4 |
| 20260502010523 | 37 | 66 | 1.0 | 5.0 | 0.00 | 0.00 | 0.00 | 97 | 1020.5 |
| 20260502010024 | 37 | 62 | 1.0 | 5.0 | 0.00 | 0.00 | 0.00 | 97 | 1020.4 |
| 20260502005524 | 37 | 64 | 1.0 | 5.0 | 0.00 | 0.00 | 0.00 | 97 | 1020.4 |
| 20260502005024 | 37 | 58 | 1.0 | 5.0 | 0.00 | 0.00 | 0.00 | 97 | 1020.4 |
| 20260502004539 | 37 | 64 | 1.0 | 5.0 | 0.00 | 0.00 | 0.00 | 97 | 1020.5 |
| 20260502004022 | 37 | 41 | 2.0 | 6.0 | 0.00 | 0.00 | 0.00 | 97 | 1020.5 |
| 20260502003523 | 37 | 48 | 3.0 | 6.0 | 0.00 | 0.00 | 0.00 | 96 | 1020.5 |
| 20260502003023 | 37 | 40 | 3.0 | 6.0 | 0.00 | 0.00 | 0.00 | 97 | 1020.5 |
| 20260502002523 | 36 | 61 | 3.0 | 6.0 | 0.00 | 0.00 | 0.00 | 97 | 1020.5 |
| 20260502002122 | 36 | 71 | 3.0 | 7.0 | 0.00 | 0.00 | 0.00 | 96 | 1020.6 |
| 20260502001525 | 36 | 39 | 3.0 | 6.0 | 0.00 | 0.00 | 0.00 | 96 | 1020.5 |
| 20260502001021 | 36 | 41 | 2.0 | 7.0 | 0.00 | 0.00 | 0.00 | 96 | 1020.6 |
| 20260502000521 | 36 | 39 | 2.0 | 6.0 | 0.00 | 0.00 | 0.00 | 96 | 1020.6 |
| 20260502000022 | 36 | 70 | 3.0 | 6.0 | 0.00 | 0.00 | 0.00 | 96 | 1020.7 |
| 20260501235523 | 36 | 57 | 1.0 | 5.0 | 0.00 | 0.00 | 0.00 | 96 | 1020.7 |
| 20260501235020 | 36 | 49 | 2.0 | 7.0 | 0.00 | 0.00 | 0.00 | 96 | 1020.7 |
| 20260501234527 | 36 | 61 | 4.0 | 7.0 | 0.00 | 0.00 | 0.00 | 96 | 1020.8 |
| 20260501234020 | 36 | 81 | 3.0 | 6.0 | 0.00 | 0.00 | 0.00 | 96 | 1020.8 |
| 20260501233520 | 36 | 65 | 3.0 | 6.0 | 0.00 | 0.00 | 0.00 | 96 | 1020.7 |
| 20260501233021 | 36 | 69 | 4.0 | 6.0 | 0.00 | 0.00 | 0.00 | 96 | 1020.7 |
| 20260501232519 | 36 | 68 | 4.0 | 6.0 | 0.00 | 0.00 | 0.00 | 96 | 1020.7 |
| 20260501232120 | 36 | 70 | 4.0 | 7.0 | 0.00 | 0.00 | 0.00 | 96 | 1020.6 |
| 20260501231535 | 36 | 58 | 4.0 | 8.0 | 0.00 | 0.00 | 0.00 | 96 | 1020.7 |
| 20260501231022 | 36 | 41 | 3.0 | 8.0 | 0.00 | 0.00 | 0.00 | 96 | 1020.7 |
| 20260501230522 | 36 | 75 | 4.0 | 8.0 | 0.00 | 0.00 | 0.00 | 96 | 1020.6 |
| 20260501230021 | 36 | 71 | 4.0 | 7.0 | 0.00 | 0.00 | 0.00 | 96 | 1020.5 |
| 20260501225520 | 36 | 75 | 3.0 | 7.0 | 0.00 | 0.00 | 0.00 | 96 | 1020.5 |
| 20260501225021 | 36 | 56 | 3.0 | 7.0 | 0.00 | 0.00 | 0.00 | 96 | 1020.5 |
| 20260501224520 | 36 | 47 | 4.0 | 7.0 | 0.00 | 0.00 | 0.00 | 96 | 1020.4 |
| 20260501224019 | 36 | 56 | 4.0 | 7.0 | 0.00 | 0.00 | 0.00 | 96 | 1020.4 |
| 20260501223519 | 36 | 58 | 3.0 | 8.0 | 0.00 | 0.00 | 0.00 | 96 | 1020.4 |
| 20260501223019 | 36 | 70 | 4.0 | 8.0 | 0.00 | 0.00 | 0.00 | 96 | 1020.4 |
| 20260501222519 | 36 | 62 | 4.0 | 8.0 | 0.00 | 0.00 | 0.00 | 96 | 1020.4 |
| 20260501222119 | 36 | 62 | 3.0 | 8.0 | 0.00 | 0.00 | 0.00 | 96 | 1020.4 |
| 20260501221521 | 36 | 62 | 3.0 | 8.0 | 0.00 | 0.00 | 0.00 | 96 | 1020.4 |
| 20260501221019 | 36 | 70 | 2.0 | 7.0 | 0.00 | 0.00 | 0.00 | 96 | 1020.4 |
| 20260501220519 | 36 | 79 | 3.0 | 7.0 | 0.00 | 0.00 | 0.00 | 96 | 1020.5 |
| 20260501220018 | 36 | 63 | 4.0 | 7.0 | 0.00 | 0.00 | 0.00 | 96 | 1020.5 |
| 20260501215519 | 36 | 72 | 2.0 | 6.0 | 0.00 | 0.00 | 0.00 | 96 | 1020.5 |
| 20260501215019 | 36 | 53 | 2.0 | 7.0 | 0.00 | 0.00 | 0.00 | 95 | 1020.5 |
| 20260501214520 | 36 | 30 | 3.0 | 7.0 | 0.00 | 0.00 | 0.00 | 95 | 1020.6 |
| 20260501214017 | 36 | 47 | 2.0 | 6.0 | 0.00 | 0.00 | 0.00 | 95 | 1020.7 |
| 20260501213517 | 36 | 60 | 1.0 | 7.0 | 0.00 | 0.00 | 0.00 | 95 | 1020.8 |
| 20260501213017 | 36 | 56 | 3.0 | 7.0 | 0.00 | 0.00 | 0.00 | 95 | 1020.7 |
| 20260501212517 | 37 | 50 | 1.0 | 6.0 | 0.00 | 0.00 | 0.00 | 95 | 1020.7 |
| 20260501212116 | 37 | 60 | 1.0 | 5.0 | 0.00 | 0.00 | 0.00 | 95 | 1020.9 |
| 20260501211515 | 37 | 58 | 0.0 | 5.0 | 0.00 | 0.00 | 0.00 | 95 | 1020.9 |
| 20260501211014 | 37 | 50 | 1.0 | 5.0 | 0.00 | 0.00 | 0.00 | 95 | 1020.8 |
| 20260501210514 | 37 | 31 | 2.0 | 5.0 | 0.00 | 0.00 | 0.00 | 95 | 1020.8 |